QPF
0.01 0.01 0.01 0.01 0.04 0.07 0.07 0.03 0.01 0.01 0.01 0.00 0.00 0.00 0.02 0.05 0.08 0.08 0.06 0.03 0.02 0.07 0.07 0.05 0.07 0.10 0.09 0.06 0.06 0.07 0.08 0.06 0.06 0.06 0.05 0.04 0.04 0.04 0.06 0.06 0.07 0.08 0.10 0.12 0.12 0.12 0.11 0.10 0.11
0.00 0.00 0.01 0.02 0.06 0.06 0.05 0.04 0.03 0.01 0.01 0.01 0.01 0.01 0.02 0.04 0.04 0.04 0.06 0.03 0.02 0.07 0.14 0.11 0.09 0.11 0.10 0.08 0.06 0.06 0.06 0.07 0.07 0.07 0.07 0.06 0.05 0.05 0.05 0.05 0.07 0.08 0.08 0.07 0.08 0.08 0.06 0.06 0.07
0.00 0.00 0.01 0.02 0.03 0.05 0.05 0.04 0.02 0.02 0.01 0.02 0.04 0.03 0.03 0.06 0.06 0.06 0.06 0.02 0.01 0.03 0.06 0.07 0.06 0.05 0.06 0.08 0.07 0.05 0.06 0.06 0.08 0.08 0.08 0.09 0.07 0.06 0.06 0.07 0.08 0.09 0.10 0.11 0.09 0.07 0.06 0.05 0.05
0.00 0.01 0.01 0.04 0.04 0.03 0.03 0.04 0.03 0.03 0.02 0.02 0.04 0.03 0.03 0.06 0.08 0.06 0.04 0.01 0.01 0.02 0.02 0.02 0.03 0.04 0.04 0.05 0.07 0.07 0.07 0.07 0.07 0.07 0.07 0.10 0.09 0.06 0.07 0.10 0.15 0.14 0.15 0.13 0.08 0.08 0.07 0.05 0.05
0.00 0.02 0.04 0.05 0.03 0.02 0.03 0.03 0.02 0.02 0.02 0.02 0.02 0.03 0.03 0.04 0.05 0.04 0.03 0.01 0.01 0.01 0.01 0.01 0.02 0.06 0.07 0.06 0.05 0.07 0.09 0.08 0.07 0.07 0.09 0.13 0.12 0.10 0.07 0.09 0.13 0.13 0.13 0.09 0.07 0.06 0.06 0.04 0.03
0.01 0.02 0.05 0.04 0.02 0.01 0.01 0.02 0.02 0.02 0.02 0.02 0.02 0.03 0.04 0.03 0.03 0.03 0.03 0.02 0.01 0.01 0.01 0.00 0.01 0.02 0.03 0.04 0.06 0.07 0.06 0.05 0.04 0.03 0.04 0.05 0.06 0.09 0.09 0.07 0.07 0.05 0.04 0.04 0.04 0.04 0.04 0.03 0.02
0.01 0.01 0.03 0.02 0.02 0.01 0.01 0.01 0.01 0.01 0.01 0.02 0.02 0.03 0.05 0.04 0.03 0.04 0.03 0.02 0.02 0.01 0.00 0.00 0.01 0.01 0.01 0.02 0.04 0.04 0.04 0.03 0.03 0.02 0.02 0.02 0.03 0.04 0.06 0.05 0.05 0.04 0.03 0.04 0.04 0.04 0.03 0.02 0.01
0.00 0.01 0.01 0.01 0.01 0.01 0.01 0.01 0.01 0.01 0.01 0.01 0.02 0.02 0.06 0.08 0.06 0.05 0.03 0.03 0.02 0.01 0.01 0.01 0.01 0.02 0.01 0.01 0.02 0.03 0.03 0.03 0.02 0.02 0.02 0.02 0.02 0.03 0.03 0.04 0.04 0.04 0.04 0.04 0.04 0.03 0.02 0.01 0.01
0.00 0.00 0.01 0.01 0.01 0.01 0.01 0.01 0.01 0.01 0.01 0.01 0.02 0.02 0.04 0.09 0.10 0.08 0.06 0.05 0.04 0.02 0.01 0.02 0.02 0.04 0.05 0.03 0.02 0.03 0.02 0.02 0.03 0.03 0.03 0.03 0.03 0.03 0.03 0.03 0.04 0.04 0.04 0.04 0.03 0.02 0.02 0.01 0.01
0.00 0.00 0.00 0.00 0.00 0.01 0.01 0.01 0.01 0.01 0.01 0.01 0.02 0.03 0.02 0.04 0.06 0.08 0.07 0.05 0.04 0.03 0.02 0.01 0.02 0.02 0.03 0.03 0.02 0.03 0.02 0.03 0.04 0.05 0.04 0.05 0.06 0.05 0.03 0.03 0.03 0.02 0.02 0.03 0.04 0.03 0.01 0.02 0.02
0.00 0.00 0.00 0.00 0.00 0.00 0.00 0.00 0.01 0.01 0.01 0.01 0.02 0.03 0.02 0.02 0.02 0.04 0.05 0.04 0.04 0.03 0.02 0.01 0.01 0.01 0.01 0.02 0.02 0.03 0.03 0.02 0.03 0.04 0.03 0.04 0.04 0.04 0.04 0.03 0.03 0.02 0.02 0.03 0.03 0.02 0.02 0.03 0.02
0.00 0.00 0.00 0.00 0.00 0.00 0.00 0.00 0.00 0.00 0.01 0.01 0.01 0.01 0.01 0.01 0.02 0.02 0.03 0.02 0.02 0.02 0.03 0.02 0.01 0.01 0.00 0.00 0.01 0.01 0.01 0.02 0.02 0.03 0.02 0.02 0.03 0.03 0.03 0.04 0.04 0.04 0.04 0.05 0.05 0.03 0.02 0.02 0.01
0.00 0.00 0.00 0.00 0.00 0.00 0.00 0.00 0.00 0.00 0.00 0.00 0.00 0.00 0.00 0.01 0.01 0.02 0.02 0.01 0.01 0.01 0.02 0.02 0.01 0.00 0.00 0.00 0.00 0.00 0.01 0.02 0.01 0.03 0.02 0.02 0.02 0.02 0.03 0.04 0.04 0.04 0.03 0.04 0.05 0.04 0.03 0.02 0.01
0.00 0.00 0.00 0.00 0.00 0.00 0.00 0.01 0.01 0.01 0.00 0.00 0.00 0.00 0.00 0.00 0.01 0.01 0.01 0.01 0.01 0.01 0.02 0.03 0.01 0.00 0.00 0.00 0.01 0.01 0.01 0.01 0.01 0.01 0.01 0.01 0.01 0.01 0.02 0.03 0.05 0.05 0.03 0.03 0.04 0.05 0.04 0.03 0.01
0.00 0.00 0.00 0.00 0.00 0.00 0.00 0.01 0.02 0.01 0.00 0.01 0.00 0.00 0.00 0.00 0.00 0.00 0.01 0.01 0.01 0.01 0.03 0.03 0.01 0.01 0.00 0.00 0.00 0.01 0.01 0.01 0.01 0.01 0.01 0.01 0.00 0.01 0.01 0.02 0.04 0.04 0.04 0.04 0.05 0.05 0.05 0.05 0.02
0.00 0.00 0.00 0.00 0.00 0.00 0.01 0.02 0.01 0.02 0.01 0.01 0.01 0.01 0.00 0.00 0.00 0.00 0.01 0.00 0.00 0.01 0.02 0.02 0.01 0.00 0.00 0.00 0.00 0.00 0.00 0.01 0.01 0.01 0.02 0.01 0.01 0.01 0.01 0.02 0.03 0.04 0.04 0.04 0.04 0.04 0.05 0.06 0.04
0.00 0.01 0.01 0.01 0.00 0.00 0.01 0.02 0.01 0.02 0.01 0.01 0.01 0.01 0.00 0.00 0.00 0.00 0.00 0.01 0.00 0.00 0.00 0.01 0.00 0.00 0.00 0.00 0.00 0.01 0.00 0.00 0.00 0.01 0.01 0.01 0.01 0.01 0.01 0.01 0.02 0.03 0.03 0.04 0.04 0.04 0.05 0.06 0.04
0.01 0.01 0.01 0.01 0.01 0.00 0.01 0.02 0.02 0.02 0.01 0.00 0.01 0.01 0.01 0.00 0.00 0.00 0.00 0.01 0.01 0.01 0.00 0.00 0.00 0.00 0.00 0.00 0.01 0.01 0.01 0.00 0.00 0.00 0.01 0.01 0.00 0.01 0.01 0.02 0.02 0.03 0.04 0.05 0.05 0.03 0.05 0.06 0.04
0.01 0.01 0.01 0.01 0.01 0.01 0.02 0.02 0.01 0.02 0.01 0.01 0.01 0.01 0.01 0.01 0.00 0.01 0.01 0.01 0.01 0.01 0.01 0.01 0.01 0.01 0.01 0.00 0.00 0.01 0.01 0.01 0.01 0.01 0.01 0.01 0.01 0.00 0.00 0.01 0.02 0.03 0.04 0.04 0.05 0.04 0.03 0.05 0.05
0.00 0.01 0.01 0.01 0.01 0.01 0.01 0.01 0.01 0.01 0.02 0.02 0.01 0.01 0.02 0.02 0.00 0.01 0.01 0.02 0.02 0.02 0.02 0.02 0.01 0.01 0.01 0.00 0.00 0.00 0.00 0.01 0.01 0.01 0.00 0.01 0.01 0.01 0.00 0.00 0.01 0.02 0.03 0.04 0.05 0.05 0.02 0.02 0.04
0.00 0.01 0.00 0.01 0.02 0.02 0.01 0.01 0.01 0.01 0.03 0.02 0.02 0.01 0.01 0.01 0.00 0.00 0.00 0.00 0.01 0.02 0.03 0.03 0.02 0.01 0.01 0.00 0.00 0.00 0.01 0.01 0.01 0.01 0.01 0.01 0.01 0.01 0.00 0.00 0.01 0.01 0.02 0.03 0.04 0.06 0.04 0.03 0.03
0.00 0.01 0.00 0.00 0.01 0.02 0.01 0.02 0.02 0.02 0.02 0.03 0.03 0.02 0.01 0.01 0.00 0.01 0.01 0.01 0.01 0.01 0.02 0.03 0.03 0.02 0.01 0.01 0.01 0.00 0.01 0.01 0.01 0.00 0.00 0.01 0.01 0.01 0.01 0.01 0.01 0.01 0.02 0.03 0.04 0.05 0.06 0.04 0.03
0.00 0.00 0.00 0.00 0.00 0.01 0.01 0.02 0.02 0.02 0.02 0.02 0.02 0.01 0.01 0.00 0.00 0.01 0.01 0.01 0.01 0.01 0.01 0.02 0.03 0.03 0.02 0.02 0.01 0.01 0.01 0.01 0.00 0.00 0.00 0.00 0.01 0.01 0.01 0.01 0.01 0.01 0.02 0.03 0.05 0.05 0.06 0.05 0.05
0.00 0.00 0.00 0.00 0.00 0.01 0.00 0.01 0.02 0.02 0.01 0.01 0.01 0.00 0.00 0.00 0.00 0.00 0.00 0.01 0.02 0.01 0.01 0.01 0.03 0.04 0.05 0.04 0.02 0.01 0.01 0.01 0.00 0.00 0.00 0.00 0.01 0.01 0.01 0.00 0.00 0.00 0.01 0.02 0.05 0.06 0.06 0.06 0.05
0.00 0.01 0.02 0.02 0.02 0.01 0.00 0.00 0.01 0.01 0.01 0.01 0.00 0.00 0.00 0.01 0.01 0.01 0.00 0.00 0.01 0.02 0.01 0.01 0.01 0.03 0.05 0.05 0.04 0.02 0.01 0.01 0.00 0.00 0.00 0.00 0.00 0.00 0.00 0.00 0.00 0.00 0.00 0.01 0.03 0.04 0.04 0.04 0.05
0.00 0.01 0.03 0.04 0.02 0.01 0.00 0.01 0.01 0.01 0.00 0.00 0.00 0.00 0.00 0.00 0.01 0.00 0.00 0.00 0.00 0.00 0.01 0.01 0.01 0.01 0.03 0.04 0.05 0.04 0.02 0.02 0.01 0.00 0.00 0.01 0.01 0.01 0.01 0.01 0.01 0.01 0.01 0.01 0.01 0.02 0.03 0.03 0.04
0.00 0.00 0.01 0.02 0.02 0.02 0.01 0.01 0.02 0.01 0.00 0.00 0.00 0.00 0.00 0.00 0.01 0.01 0.01 0.01 0.00 0.00 0.01 0.01 0.01 0.02 0.02 0.03 0.04 0.04 0.04 0.03 0.01 0.00 0.00 0.01 0.01 0.01 0.00 0.00 0.01 0.01 0.01 0.01 0.01 0.02 0.04 0.04 0.04
0.00 0.00 0.00 0.01 0.02 0.02 0.02 0.01 0.02 0.01 0.01 0.00 0.00 0.00 0.00 0.01 0.01 0.01 0.01 0.01 0.01 0.00 0.01 0.01 0.02 0.02 0.02 0.03 0.04 0.04 0.04 0.03 0.02 0.01 0.01 0.01 0.01 0.00 0.00 0.00 0.00 0.01 0.01 0.01 0.02 0.03 0.04 0.05 0.04
0.01 0.01 0.01 0.01 0.01 0.02 0.02 0.01 0.02 0.03 0.02 0.02 0.01 0.01 0.01 0.01 0.02 0.04 0.03 0.01 0.01 0.01 0.01 0.01 0.02 0.02 0.02 0.03 0.03 0.04 0.04 0.05 0.03 0.01 0.01 0.00 0.01 0.01 0.00 0.00 0.00 0.01 0.01 0.01 0.02 0.03 0.03 0.03 0.03
0.00 0.01 0.01 0.02 0.01 0.01 0.02 0.02 0.02 0.05 0.04 0.04 0.02 0.01 0.01 0.01 0.01 0.02 0.01 0.00 0.01 0.01 0.01 0.01 0.02 0.02 0.03 0.03 0.03 0.04 0.05 0.05 0.04 0.02 0.01 0.01 0.01 0.01 0.00 0.00 0.00 0.00 0.01 0.01 0.01 0.02 0.03 0.03 0.03
MSLP
1004.31 1005.36 1006.80 1008.47 1010.18 1011.74 1013.01 1013.90 1014.39 1014.57 1014.56 1014.50 1014.50 1014.63 1014.90 1015.24 1015.57 1015.80 1015.88 1015.79 1015.57 1015.30 1015.06 1014.93 1014.96 1015.13 1015.38 1015.66 1015.87 1015.98 1015.97 1015.85 1015.68 1015.53 1015.43 1015.42 1015.48 1015.57 1015.64 1015.65 1015.56 1015.39 1015.15 1014.90 1014.67 1014.50 1014.37 1014.28 1014.19
1004.82 1006.06 1007.63 1009.34 1011.00 1012.44 1013.50 1014.15 1014.41 1014.38 1014.22 1014.08 1014.07 1014.25 1014.59 1015.03 1015.46 1015.78 1015.93 1015.91 1015.74 1015.51 1015.31 1015.21 1015.27 1015.45 1015.72 1016.00 1016.22 1016.33 1016.32 1016.22 1016.07 1015.94 1015.85 1015.84 1015.87 1015.92 1015.95 1015.89 1015.75 1015.53 1015.26 1015.00 1014.77 1014.60 1014.49 1014.40 1014.31
1005.58 1006.95 1008.57 1010.24 1011.79 1013.04 1013.88 1014.30 1014.36 1014.18 1013.92 1013.75 1013.77 1014.00 1014.42 1014.93 1015.43 1015.80 1015.99 1015.99 1015.84 1015.64 1015.47 1015.41 1015.49 1015.71 1016.00 1016.29 1016.53 1016.66 1016.67 1016.59 1016.46 1016.33 1016.25 1016.22 1016.22 1016.22 1016.18 1016.07 1015.87 1015.61 1015.32 1015.05 1014.83 1014.69 1014.60 1014.53 1014.45
1006.52 1007.97 1009.58 1011.17 1012.56 1013.61 1014.24 1014.47 1014.37 1014.10 1013.81 1013.65 1013.70 1013.98 1014.43 1014.97 1015.47 1015.83 1015.99 1015.98 1015.83 1015.64 1015.50 1015.47 1015.60 1015.85 1016.17 1016.49 1016.75 1016.90 1016.94 1016.88 1016.77 1016.66 1016.57 1016.52 1016.49 1016.44 1016.35 1016.18 1015.94 1015.65 1015.36 1015.10 1014.90 1014.77 1014.71 1014.66 1014.60
1007.54 1009.03 1010.60 1012.07 1013.29 1014.16 1014.62 1014.70 1014.52 1014.21 1013.94 1013.81 1013.90 1014.20 1014.64 1015.13 1015.56 1015.84 1015.94 1015.86 1015.69 1015.50 1015.38 1015.39 1015.56 1015.86 1016.22 1016.57 1016.85 1017.03 1017.08 1017.05 1016.96 1016.86 1016.77 1016.71 1016.65 1016.56 1016.43 1016.23 1015.97 1015.68 1015.39 1015.15 1014.97 1014.87 1014.82 1014.78 1014.72
1008.51 1010.01 1011.51 1012.86 1013.93 1014.64 1014.98 1014.99 1014.79 1014.51 1014.29 1014.22 1014.33 1014.62 1015.00 1015.40 1015.70 1015.84 1015.82 1015.67 1015.45 1015.26 1015.16 1015.22 1015.44 1015.78 1016.17 1016.55 1016.84 1017.03 1017.10 1017.07 1017.00 1016.91 1016.83 1016.76 1016.70 1016.60 1016.46 1016.26 1016.00 1015.72 1015.46 1015.23 1015.07 1014.97 1014.91 1014.87 1014.79
1009.35 1010.82 1012.23 1013.45 1014.39 1015.00 1015.27 1015.28 1015.12 1014.92 1014.78 1014.77 1014.91 1015.16 1015.45 1015.71 1015.85 1015.85 1015.70 1015.45 1015.19 1015.00 1014.94 1015.04 1015.31 1015.68 1016.09 1016.47 1016.76 1016.94 1017.01 1016.98 1016.92 1016.84 1016.77 1016.72 1016.66 1016.58 1016.45 1016.27 1016.04 1015.79 1015.55 1015.34 1015.18 1015.07 1014.99 1014.91 1014.80
1010.03 1011.43 1012.73 1013.84 1014.67 1015.21 1015.47 1015.51 1015.44 1015.35 1015.31 1015.37 1015.52 1015.73 1015.92 1016.04 1016.03 1015.88 1015.62 1015.31 1015.02 1014.84 1014.81 1014.96 1015.25 1015.63 1016.04 1016.40 1016.66 1016.82 1016.86 1016.83 1016.77 1016.71 1016.66 1016.63 1016.59 1016.54 1016.45 1016.30 1016.11 1015.89 1015.67 1015.47 1015.31 1015.17 1015.04 1014.90 1014.74
1010.57 1011.88 1013.07 1014.06 1014.80 1015.29 1015.56 1015.67 1015.71 1015.74 1015.80 1015.93 1016.10 1016.26 1016.37 1016.37 1016.23 1015.97 1015.64 1015.29 1015.01 1014.85 1014.86 1015.03 1015.33 1015.71 1016.08 1016.39 1016.61 1016.72 1016.74 1016.70 1016.64 1016.59 1016.57 1016.57 1016.57 1016.55 1016.50 1016.39 1016.23 1016.05 1015.85 1015.65 1015.46 1015.28 1015.09 1014.89 1014.66
1011.08 1012.28 1013.34 1014.20 1014.86 1015.31 1015.61 1015.79 1015.93 1016.07 1016.23 1016.42 1016.60 1016.74 1016.77 1016.69 1016.48 1016.16 1015.80 1015.45 1015.20 1015.07 1015.11 1015.29 1015.59 1015.92 1016.24 1016.50 1016.66 1016.72 1016.72 1016.67 1016.62 1016.59 1016.59 1016.62 1016.65 1016.66 1016.63 1016.56 1016.43 1016.27 1016.08 1015.87 1015.66 1015.43 1015.18 1014.91 1014.61
1011.65 1012.72 1013.64 1014.39 1014.96 1015.38 1015.68 1015.93 1016.15 1016.37 1016.61 1016.84 1017.03 1017.14 1017.14 1017.01 1016.77 1016.44 1016.09 1015.78 1015.57 1015.48 1015.54 1015.72 1015.98 1016.27 1016.52 1016.71 1016.82 1016.85 1016.83 1016.79 1016.75 1016.75 1016.78 1016.83 1016.88 1016.91 1016.90 1016.84 1016.73 1016.57 1016.38 1016.16 1015.91 1015.64 1015.34 1015.01 1014.66
1012.34 1013.28 1014.06 1014.69 1015.18 1015.56 1015.87 1016.14 1016.41 1016.69 1016.96 1017.21 1017.40 1017.50 1017.48 1017.35 1017.11 1016.81 1016.50 1016.24 1016.08 1016.03 1016.09 1016.25 1016.47 1016.70 1016.89 1017.03 1017.10 1017.12 1017.11 1017.09 1017.09 1017.12 1017.17 1017.24 1017.29 1017.32 1017.31 1017.24 1017.13 1016.96 1016.76 1016.53 1016.26 1015.95 1015.61 1015.24 1014.85
1013.17 1013.98 1014.63 1015.15 1015.56 1015.89 1016.18 1016.46 1016.74 1017.03 1017.31 1017.56 1017.74 1017.83 1017.81 1017.68 1017.48 1017.23 1016.98 1016.78 1016.65 1016.62 1016.68 1016.81 1016.98 1017.15 1017.30 1017.42 1017.49 1017.53 1017.55 1017.58 1017.63 1017.69 1017.76 1017.82 1017.87 1017.88 1017.84 1017.76 1017.62 1017.45 1017.23 1016.99 1016.70 1016.37 1016.01 1015.62 1015.22
1014.07 1014.76 1015.31 1015.73 1016.06 1016.34 1016.60 1016.86 1017.12 1017.40 1017.65 1017.87 1018.03 1018.11 1018.10 1018.01 1017.85 1017.66 1017.47 1017.31 1017.22 1017.19 1017.23 1017.32 1017.45 1017.59 1017.73 1017.85 1017.95 1018.04 1018.13 1018.22 1018.32 1018.41 1018.49 1018.55 1018.57 1018.55 1018.47 1018.36 1018.20 1018.01 1017.79 1017.53 1017.24 1016.90 1016.54 1016.15 1015.75
1014.92 1015.51 1015.96 1016.31 1016.58 1016.81 1017.03 1017.25 1017.48 1017.71 1017.93 1018.11 1018.25 1018.32 1018.33 1018.28 1018.18 1018.05 1017.92 1017.81 1017.73 1017.70 1017.71 1017.77 1017.87 1018.00 1018.14 1018.30 1018.46 1018.63 1018.80 1018.96 1019.11 1019.23 1019.31 1019.34 1019.32 1019.26 1019.15 1019.00 1018.82 1018.62 1018.40 1018.14 1017.86 1017.53 1017.17 1016.79 1016.42
1015.62 1016.11 1016.48 1016.77 1016.99 1017.18 1017.36 1017.54 1017.72 1017.89 1018.06 1018.20 1018.32 1018.41 1018.45 1018.46 1018.43 1018.38 1018.31 1018.23 1018.17 1018.13 1018.12 1018.16 1018.24 1018.37 1018.55 1018.76 1019.01 1019.26 1019.51 1019.74 1019.92 1020.05 1020.11 1020.11 1020.06 1019.95 1019.81 1019.64 1019.46 1019.26 1019.05 1018.81 1018.53 1018.23 1017.88 1017.53 1017.18
1016.06 1016.47 1016.77 1017.01 1017.19 1017.35 1017.49 1017.62 1017.74 1017.85 1017.97 1018.08 1018.20 1018.31 1018.42 1018.51 1018.57 1018.61 1018.61 1018.59 1018.55 1018.51 1018.49 1018.51 1018.59 1018.74 1018.97 1019.25 1019.57 1019.91 1020.22 1020.50 1020.70 1020.82 1020.85 1020.81 1020.71 1020.57 1020.41 1020.24 1020.07 1019.90 1019.71 1019.49 1019.24 1018.96 1018.64 1018.31 1018.00
1016.22 1016.55 1016.80 1017.00 1017.15 1017.28 1017.37 1017.44 1017.49 1017.55 1017.61 1017.70 1017.83 1017.99 1018.19 1018.39 1018.57 1018.72 1018.83 1018.87 1018.87 1018.85 1018.83 1018.86 1018.95 1019.13 1019.40 1019.74 1020.13 1020.52 1020.89 1021.18 1021.38 1021.48 1021.47 1021.39 1021.26 1021.10 1020.94 1020.78 1020.64 1020.51 1020.36 1020.19 1019.97 1019.72 1019.43 1019.13 1018.85
1016.12 1016.39 1016.60 1016.78 1016.91 1017.00 1017.04 1017.04 1017.01 1016.99 1016.99 1017.07 1017.22 1017.45 1017.75 1018.09 1018.43 1018.73 1018.95 1019.10 1019.16 1019.18 1019.18 1019.21 1019.32 1019.53 1019.84 1020.23 1020.66 1021.09 1021.48 1021.77 1021.95 1022.01 1021.96 1021.85 1021.69 1021.53 1021.38 1021.27 1021.18 1021.10 1021.01 1020.88 1020.71 1020.48 1020.23 1019.96 1019.71
1015.86 1016.08 1016.28 1016.46 1016.57 1016.62 1016.59 1016.50 1016.37 1016.25 1016.18 1016.22 1016.39 1016.70 1017.13 1017.63 1018.14 1018.61 1018.99 1019.25 1019.40 1019.48 1019.51 1019.57 1019.70 1019.93 1020.26 1020.67 1021.13 1021.58 1021.96 1022.24 1022.39 1022.41 1022.33 1022.19 1022.03 1021.88 1021.78 1021.72 1021.69 1021.67 1021.64 1021.56 1021.44 1021.25 1021.03 1020.80 1020.59
1015.54 1015.76 1015.98 1016.16 1016.27 1016.27 1016.16 1015.95 1015.69 1015.44 1015.28 1015.27 1015.45 1015.82 1016.37 1017.03 1017.72 1018.38 1018.92 1019.32 1019.58 1019.73 1019.81 1019.89 1020.04 1020.27 1020.62 1021.04 1021.50 1021.95 1022.33 1022.59 1022.71 1022.71 1022.62 1022.48 1022.33 1022.21 1022.15 1022.15 1022.19 1022.24 1022.27 1022.24 1022.16 1022.02 1021.84 1021.64 1021.47
1015.25 1015.53 1015.81 1016.03 1016.13 1016.08 1015.87 1015.53 1015.11 1014.71 1014.41 1014.32 1014.48 1014.90 1015.54 1016.35 1017.22 1018.05 1018.76 1019.31 1019.68 1019.90 1020.03 1020.14 1020.29 1020.53 1020.87 1021.29 1021.75 1022.20 1022.57 1022.83 1022.95 1022.95 1022.87 1022.74 1022.62 1022.55 1022.54 1022.60 1022.70 1022.80 1022.88 1022.90 1022.86 1022.76 1022.63 1022.48 1022.35
1015.06 1015.44 1015.81 1016.09 1016.21 1016.11 1015.80 1015.31 1014.71 1014.13 1013.69 1013.49 1013.59 1014.02 1014.74 1015.66 1016.67 1017.66 1018.53 1019.20 1019.68 1019.97 1020.15 1020.27 1020.43 1020.67 1021.00 1021.42 1021.88 1022.32 1022.71 1022.98 1023.12 1023.15 1023.11 1023.02 1022.95 1022.93 1022.97 1023.07 1023.21 1023.35 1023.47 1023.53 1023.53 1023.47 1023.38 1023.29 1023.21
1014.96 1015.47 1015.96 1016.33 1016.47 1016.34 1015.94 1015.30 1014.53 1013.77 1013.16 1012.83 1012.86 1013.27 1014.01 1015.01 1016.13 1017.25 1018.23 1019.02 1019.58 1019.94 1020.15 1020.30 1020.45 1020.68 1021.01 1021.42 1021.88 1022.35 1022.75 1023.06 1023.26 1023.35 1023.36 1023.33 1023.32 1023.34 1023.42 1023.56 1023.72 1023.88 1024.01 1024.10 1024.13 1024.11 1024.07 1024.03 1024.02
1014.91 1015.58 1016.20 1016.65 1016.83 1016.68 1016.19 1015.43 1014.51 1013.59 1012.83 1012.37 1012.31 1012.67 1013.42 1014.45 1015.64 1016.83 1017.91 1018.78 1019.41 1019.81 1020.06 1020.22 1020.37 1020.59 1020.91 1021.32 1021.80 1022.29 1022.74 1023.10 1023.37 1023.53 1023.62 1023.66 1023.71 1023.77 1023.88 1024.03 1024.19 1024.36 1024.49 1024.59 1024.64 1024.66 1024.67 1024.69 1024.73
1014.86 1015.66 1016.39 1016.93 1017.14 1016.98 1016.44 1015.59 1014.56 1013.51 1012.63 1012.07 1011.92 1012.23 1012.95 1013.99 1015.20 1016.44 1017.57 1018.50 1019.18 1019.62 1019.89 1020.07 1020.23 1020.45 1020.76 1021.18 1021.66 1022.18 1022.68 1023.11 1023.44 1023.69 1023.85 1023.97 1024.07 1024.18 1024.30 1024.45 1024.61 1024.76 1024.89 1024.99 1025.06 1025.11 1025.17 1025.25 1025.35
1014.75 1015.64 1016.45 1017.03 1017.27 1017.11 1016.54 1015.64 1014.55 1013.43 1012.48 1011.85 1011.65 1011.91 1012.59 1013.61 1014.82 1016.07 1017.23 1018.18 1018.90 1019.38 1019.68 1019.88 1020.05 1020.28 1020.59 1021.01 1021.51 1022.05 1022.59 1023.07 1023.48 1023.79 1024.03 1024.22 1024.37 1024.51 1024.65 1024.80 1024.95 1025.08 1025.20 1025.30 1025.39 1025.48 1025.58 1025.71 1025.87
1014.56 1015.48 1016.30 1016.88 1017.11 1016.94 1016.37 1015.46 1014.36 1013.24 1012.28 1011.63 1011.40 1011.63 1012.28 1013.27 1014.45 1015.69 1016.84 1017.81 1018.56 1019.08 1019.42 1019.65 1019.86 1020.10 1020.43 1020.85 1021.35 1021.91 1022.47 1022.99 1023.45 1023.83 1024.13 1024.37 1024.57 1024.74 1024.90 1025.06 1025.20 1025.33 1025.45 1025.55 1025.66 1025.78 1025.92 1026.10 1026.31
1014.31 1015.16 1015.91 1016.44 1016.63 1016.43 1015.87 1014.99 1013.94 1012.87 1011.95 1011.33 1011.11 1011.33 1011.95 1012.89 1014.03 1015.23 1016.37 1017.35 1018.12 1018.69 1019.09 1019.38 1019.63 1019.91 1020.26 1020.69 1021.20 1021.75 1022.32 1022.86 1023.34 1023.76 1024.11 1024.40 1024.65 1024.86 1025.06 1025.23 1025.39 1025.53 1025.66 1025.78 1025.91 1026.06 1026.23 1026.44 1026.68
1014.04 1014.74 1015.35 1015.75 1015.85 1015.62 1015.06 1014.24 1013.26 1012.29 1011.46 1010.91 1010.73 1010.95 1011.53 1012.42 1013.50 1014.65 1015.76 1016.74 1017.54 1018.16 1018.63 1019.00 1019.33 1019.67 1020.06 1020.51 1021.02 1021.57 1022.13 1022.66 1023.16 1023.60 1023.99 1024.33 1024.62 1024.89 1025.13 1025.35 1025.54 1025.71 1025.87 1026.02 1026.18 1026.35 1026.55 1026.78 1027.04
Thickness
5812 5817 5816 5803 5778 5760 5752 5761 5770 5770 5774 5782 5785 5781 5769 5762 5753 5742 5764 5778 5781 5778 5775 5773 5773 5773 5773 5773 5773 5773 5774 5774 5775 5775 5776 5776 5776 5776 5776 5777 5777 5776 5774 5773 5772 5772 5771 5771 5771
5814 5818 5807 5789 5762 5744 5745 5761 5763 5768 5776 5784 5783 5779 5769 5762 5765 5763 5768 5777 5780 5778 5774 5771 5770 5770 5770 5770 5771 5771 5771 5772 5772 5773 5773 5774 5773 5773 5774 5775 5775 5773 5771 5770 5770 5769 5769 5768 5768
5813 5815 5793 5776 5759 5748 5747 5762 5766 5774 5782 5781 5774 5772 5764 5758 5763 5764 5770 5778 5779 5776 5772 5769 5768 5768 5768 5768 5768 5768 5768 5769 5769 5770 5771 5771 5770 5770 5770 5771 5771 5770 5768 5767 5767 5766 5766 5766 5765
5810 5800 5788 5765 5752 5760 5762 5766 5773 5771 5776 5779 5772 5760 5760 5765 5765 5767 5774 5778 5776 5774 5770 5767 5767 5766 5765 5765 5765 5765 5765 5765 5766 5767 5768 5767 5767 5767 5767 5766 5766 5765 5765 5764 5763 5763 5763 5762 5762
5805 5785 5765 5752 5754 5764 5771 5775 5776 5768 5767 5770 5766 5753 5750 5762 5769 5771 5773 5775 5773 5771 5769 5766 5764 5764 5763 5763 5762 5762 5762 5762 5762 5763 5763 5762 5763 5763 5763 5762 5762 5761 5761 5760 5759 5759 5759 5759 5759
5787 5777 5751 5742 5751 5762 5771 5777 5773 5766 5764 5766 5762 5752 5747 5761 5764 5768 5771 5771 5771 5770 5767 5764 5762 5762 5761 5760 5760 5759 5759 5759 5759 5759 5759 5759 5759 5759 5759 5758 5758 5757 5757 5756 5755 5755 5755 5756 5756
5778 5765 5750 5748 5748 5754 5764 5774 5768 5763 5761 5763 5765 5749 5747 5756 5762 5767 5769 5769 5769 5769 5767 5763 5761 5759 5758 5758 5757 5757 5756 5756 5756 5756 5756 5755 5755 5755 5755 5754 5753 5753 5752 5752 5752 5752 5752 5752 5752
5788 5768 5752 5751 5747 5749 5765 5769 5769 5764 5759 5769 5767 5748 5741 5752 5763 5765 5766 5765 5765 5766 5766 5764 5761 5759 5757 5755 5755 5754 5754 5754 5753 5753 5753 5752 5752 5752 5751 5751 5750 5749 5749 5749 5749 5748 5749 5749 5749
5790 5760 5745 5749 5748 5751 5764 5762 5765 5769 5764 5762 5762 5757 5755 5759 5761 5759 5757 5757 5758 5760 5762 5762 5761 5759 5757 5755 5753 5752 5751 5751 5751 5751 5750 5750 5750 5749 5748 5747 5746 5746 5745 5745 5745 5745 5745 5746 5746
5776 5749 5750 5761 5762 5758 5761 5760 5761 5759 5753 5751 5752 5755 5758 5757 5756 5753 5751 5750 5751 5753 5757 5759 5758 5757 5755 5754 5751 5751 5750 5749 5749 5749 5749 5748 5748 5747 5745 5744 5743 5743 5742 5742 5742 5742 5742 5743 5743
5771 5754 5759 5764 5767 5764 5759 5759 5763 5753 5743 5747 5746 5748 5751 5752 5752 5751 5750 5749 5749 5751 5753 5755 5755 5754 5753 5750 5749 5749 5748 5746 5747 5746 5746 5745 5745 5744 5743 5741 5740 5740 5739 5739 5739 5739 5739 5740 5740
5764 5762 5763 5762 5766 5762 5758 5757 5754 5751 5748 5757 5756 5753 5751 5748 5748 5748 5747 5748 5749 5748 5749 5751 5752 5752 5750 5748 5747 5746 5745 5744 5743 5744 5743 5743 5742 5742 5741 5740 5739 5737 5737 5737 5736 5736 5737 5737 5737
5759 5757 5762 5763 5763 5762 5758 5752 5750 5748 5756 5759 5757 5753 5749 5747 5747 5748 5750 5749 5748 5746 5746 5747 5749 5748 5746 5744 5744 5742 5741 5741 5740 5740 5740 5740 5739 5738 5738 5737 5736 5735 5734 5734 5733 5733 5733 5733 5732
5759 5758 5758 5759 5758 5757 5750 5748 5747 5746 5755 5753 5750 5748 5748 5746 5746 5746 5746 5745 5745 5744 5743 5743 5744 5745 5744 5741 5740 5738 5737 5736 5736 5736 5736 5736 5735 5734 5733 5733 5732 5731 5731 5731 5730 5729 5728 5728 5727
5761 5751 5748 5752 5754 5754 5749 5735 5740 5749 5752 5746 5745 5745 5744 5744 5744 5743 5742 5743 5743 5742 5742 5740 5741 5741 5740 5738 5736 5735 5733 5732 5731 5731 5731 5731 5731 5730 5729 5728 5727 5727 5727 5727 5726 5725 5723 5722 5721
5752 5741 5730 5743 5751 5751 5738 5719 5739 5749 5747 5741 5741 5741 5739 5740 5741 5742 5742 5741 5742 5741 5739 5738 5738 5736 5735 5733 5732 5731 5729 5728 5726 5726 5726 5726 5726 5725 5724 5723 5722 5722 5722 5722 5721 5719 5717 5715 5714
5738 5727 5725 5734 5748 5746 5735 5723 5736 5747 5744 5738 5739 5738 5736 5736 5738 5739 5740 5740 5739 5738 5737 5735 5733 5732 5730 5729 5728 5726 5725 5723 5721 5721 5720 5720 5720 5720 5719 5718 5717 5717 5717 5716 5716 5714 5712 5709 5708
5725 5728 5728 5728 5741 5740 5730 5726 5734 5741 5740 5737 5736 5735 5733 5732 5733 5736 5737 5736 5736 5735 5734 5731 5729 5727 5726 5724 5723 5720 5719 5718 5716 5715 5714 5714 5715 5715 5714 5713 5712 5712 5711 5710 5709 5708 5707 5705 5704
5735 5728 5725 5730 5742 5733 5726 5725 5731 5736 5734 5733 5733 5731 5730 5730 5732 5733 5733 5732 5730 5729 5727 5725 5723 5722 5720 5717 5715 5712 5710 5711 5710 5710 5709 5709 5709 5709 5708 5707 5706 5706 5704 5704 5703 5702 5701 5699 5700
5732 5724 5723 5727 5736 5729 5723 5724 5732 5733 5731 5730 5729 5728 5728 5727 5727 5727 5726 5726 5724 5721 5721 5720 5718 5716 5715 5713 5711 5709 5706 5705 5704 5703 5703 5703 5703 5703 5703 5701 5700 5700 5699 5698 5698 5696 5694 5694 5694
5727 5721 5720 5718 5724 5728 5721 5715 5723 5730 5732 5731 5729 5728 5727 5724 5721 5720 5720 5719 5717 5715 5714 5714 5713 5711 5709 5708 5706 5703 5700 5698 5696 5695 5696 5697 5697 5697 5696 5696 5695 5694 5693 5692 5691 5690 5688 5686 5687
5715 5726 5724 5718 5710 5708 5714 5696 5714 5722 5721 5722 5722 5723 5722 5721 5719 5716 5714 5711 5710 5709 5709 5708 5707 5705 5704 5702 5699 5695 5690 5687 5688 5688 5689 5690 5690 5690 5690 5690 5689 5688 5687 5686 5686 5686 5684 5682 5680
5720 5727 5722 5718 5710 5705 5712 5700 5706 5719 5711 5714 5717 5718 5718 5717 5715 5711 5708 5705 5704 5703 5702 5701 5700 5698 5697 5695 5693 5689 5686 5684 5683 5683 5682 5682 5683 5683 5683 5683 5682 5682 5681 5681 5680 5679 5679 5677 5675
5725 5720 5718 5716 5707 5690 5708 5702 5694 5708 5710 5712 5714 5715 5714 5712 5709 5706 5704 5701 5697 5696 5694 5694 5692 5690 5690 5688 5686 5684 5681 5679 5677 5676 5675 5675 5675 5675 5676 5676 5675 5675 5675 5674 5674 5673 5673 5672 5670
5717 5701 5687 5684 5682 5690 5714 5702 5694 5710 5718 5714 5710 5708 5708 5706 5702 5698 5695 5693 5690 5687 5686 5686 5685 5683 5682 5681 5679 5678 5676 5674 5672 5670 5669 5668 5667 5667 5668 5669 5668 5668 5667 5667 5667 5666 5665 5665 5663
5707 5701 5678 5668 5676 5688 5703 5695 5698 5712 5715 5713 5709 5705 5702 5699 5696 5692 5689 5686 5683 5681 5679 5679 5678 5676 5676 5674 5673 5672 5670 5668 5667 5666 5664 5663 5661 5661 5662 5662 5661 5661 5660 5660 5659 5658 5658 5658 5656
5699 5698 5702 5686 5686 5680 5688 5694 5696 5705 5704 5702 5700 5697 5694 5692 5689 5685 5682 5680 5676 5674 5672 5672 5671 5670 5669 5667 5666 5664 5663 5662 5661 5660 5659 5657 5656 5656 5655 5654 5653 5653 5652 5652 5650 5649 5649 5649 5648
5704 5700 5694 5682 5670 5664 5679 5683 5681 5686 5688 5690 5689 5687 5685 5684 5681 5678 5675 5672 5670 5668 5666 5665 5664 5662 5661 5660 5658 5657 5656 5655 5654 5653 5652 5650 5650 5649 5647 5646 5646 5645 5644 5643 5642 5640 5640 5640 5639
5693 5690 5687 5682 5680 5664 5659 5670 5693 5687 5685 5683 5682 5681 5678 5675 5671 5667 5665 5664 5663 5661 5658 5657 5656 5655 5653 5652 5651 5649 5648 5647 5646 5645 5644 5643 5642 5641 5639 5638 5637 5635 5634 5633 5632 5631 5631 5630 5630
5695 5687 5681 5664 5666 5672 5662 5664 5694 5688 5684 5678 5675 5673 5671 5667 5663 5659 5657 5656 5653 5651 5649 5648 5647 5646 5645 5644 5643 5641 5640 5638 5637 5637 5637 5635 5633 5632 5631 5629 5627 5626 5625 5623 5622 5621 5621 5621 5620